Year,Month,Day,Hour,Minute,Value (Times are PST for temperature in C)
2017,10,27,00,00,6.20
2017,10,27,00,01,6.10
2017,10,27,00,02,6.10
2017,10,27,00,03,6.10
2017,10,27,00,04,6.00
2017,10,27,00,05,6.00
2017,10,27,00,06,6.00
2017,10,27,00,07,5.90
2017,10,27,00,08,5.90
2017,10,27,00,09,5.90
2017,10,27,00,10,5.90
2017,10,27,00,11,5.90
2017,10,27,00,12,5.90
2017,10,27,00,13,5.90
2017,10,27,00,14,5.90
2017,10,27,00,15,5.90
2017,10,27,00,16,5.90
2017,10,27,00,17,5.90
2017,10,27,00,18,5.90
2017,10,27,00,19,5.90
2017,10,27,00,20,5.90
2017,10,27,00,21,5.80
2017,10,27,00,22,5.80
2017,10,27,00,23,5.80
2017,10,27,00,24,5.80
2017,10,27,00,25,5.80
2017,10,27,00,26,5.80
2017,10,27,00,27,5.80
2017,10,27,00,28,5.80
2017,10,27,00,29,5.80
2017,10,27,00,30,5.80
2017,10,27,00,31,5.80
2017,10,27,00,32,5.80
2017,10,27,00,33,5.80
2017,10,27,00,34,5.70
2017,10,27,00,35,5.70
2017,10,27,00,36,5.70
2017,10,27,00,37,5.70
2017,10,27,00,38,5.70
2017,10,27,00,39,5.70
2017,10,27,00,40,5.60
2017,10,27,00,41,5.60
2017,10,27,00,42,5.70
2017,10,27,00,43,5.70
2017,10,27,00,44,5.70
2017,10,27,00,45,5.70
2017,10,27,00,46,5.80
2017,10,27,00,47,5.70
2017,10,27,00,48,5.70
2017,10,27,00,49,5.70
2017,10,27,00,50,5.70
2017,10,27,00,51,5.70
2017,10,27,00,52,5.70
2017,10,27,00,53,5.70
2017,10,27,00,54,5.60
2017,10,27,00,55,5.60
2017,10,27,00,56,5.60
2017,10,27,00,57,5.60
2017,10,27,00,58,5.50
2017,10,27,00,59,5.50
2017,10,27,01,00,5.50
2017,10,27,01,01,5.50
2017,10,27,01,02,5.50
2017,10,27,01,03,5.50
2017,10,27,01,04,5.40
2017,10,27,01,05,5.40
2017,10,27,01,06,5.40
2017,10,27,01,07,5.40
2017,10,27,01,08,5.30
2017,10,27,01,09,5.30
2017,10,27,01,10,5.30
2017,10,27,01,11,5.30
2017,10,27,01,12,5.30
2017,10,27,01,13,5.30
2017,10,27,01,14,5.30
2017,10,27,01,15,5.30
2017,10,27,01,16,5.30
2017,10,27,01,17,5.30
2017,10,27,01,18,5.30
2017,10,27,01,19,5.30
2017,10,27,01,20,5.30
2017,10,27,01,21,5.30
2017,10,27,01,22,5.30
2017,10,27,01,23,5.30
2017,10,27,01,24,5.30
2017,10,27,01,25,5.30
2017,10,27,01,26,5.30
2017,10,27,01,27,5.30
2017,10,27,01,28,5.30
2017,10,27,01,29,5.20
2017,10,27,01,30,5.20
2017,10,27,01,31,5.20
2017,10,27,01,32,5.20
2017,10,27,01,33,5.30
2017,10,27,01,34,5.30
2017,10,27,01,35,5.30
2017,10,27,01,36,5.30
2017,10,27,01,37,5.30
2017,10,27,01,38,5.30
2017,10,27,01,39,5.30
2017,10,27,01,40,5.30
2017,10,27,01,41,5.30
2017,10,27,01,42,5.30
2017,10,27,01,43,5.30
2017,10,27,01,44,5.30
2017,10,27,01,45,5.20
2017,10,27,01,46,5.20
2017,10,27,01,47,5.20
2017,10,27,01,48,5.10
2017,10,27,01,49,5.10
2017,10,27,01,50,5.10
2017,10,27,01,51,5.10
2017,10,27,01,52,5.10
2017,10,27,01,53,5.10
2017,10,27,01,54,5.10
2017,10,27,01,55,5.10
2017,10,27,01,56,5.10
2017,10,27,01,57,5.10
2017,10,27,01,58,5.10
2017,10,27,01,59,5.10
2017,10,27,02,00,5.10
2017,10,27,02,01,5.10
2017,10,27,02,02,5.10
2017,10,27,02,03,5.10
2017,10,27,02,04,5.10
2017,10,27,02,05,5.10
2017,10,27,02,06,5.10
2017,10,27,02,07,5.10
2017,10,27,02,08,5.10
2017,10,27,02,09,5.10
2017,10,27,02,10,5.10
2017,10,27,02,11,5.10
2017,10,27,02,12,5.10
2017,10,27,02,13,5.10
2017,10,27,02,14,4.90
2017,10,27,02,15,4.90
2017,10,27,02,16,4.90
2017,10,27,02,17,4.90
2017,10,27,02,18,4.90
2017,10,27,02,19,4.90
2017,10,27,02,20,4.90
2017,10,27,02,21,4.90
2017,10,27,02,22,4.90
2017,10,27,02,23,4.90
2017,10,27,02,24,4.90
2017,10,27,02,25,4.90
2017,10,27,02,26,4.90
2017,10,27,02,27,4.90
2017,10,27,02,28,4.90
2017,10,27,02,29,4.90
2017,10,27,02,30,4.90
2017,10,27,02,31,4.90
2017,10,27,02,32,4.90
2017,10,27,02,33,4.90
2017,10,27,02,34,4.90
2017,10,27,02,35,4.90
2017,10,27,02,36,4.90
2017,10,27,02,37,4.90
2017,10,27,02,38,4.90
2017,10,27,02,39,4.90
2017,10,27,02,40,4.90
2017,10,27,02,41,4.90
2017,10,27,02,42,4.90
2017,10,27,02,43,4.90
2017,10,27,02,44,4.90
2017,10,27,02,45,4.90
2017,10,27,02,46,4.90
2017,10,27,02,47,4.90
2017,10,27,02,48,4.90
2017,10,27,02,49,4.90
2017,10,27,02,50,4.90
2017,10,27,02,51,4.90
2017,10,27,02,52,4.90
2017,10,27,02,53,4.90
2017,10,27,02,54,4.90
2017,10,27,02,55,5.00
2017,10,27,02,56,5.10
2017,10,27,02,57,5.10
2017,10,27,02,58,5.10
2017,10,27,02,59,5.10
2017,10,27,03,00,5.10
2017,10,27,03,01,5.10
2017,10,27,03,02,5.10
2017,10,27,03,03,5.10
2017,10,27,03,04,5.10
2017,10,27,03,05,5.10
2017,10,27,03,06,5.00
2017,10,27,03,07,4.90
2017,10,27,03,08,4.90
2017,10,27,03,09,4.90
2017,10,27,03,10,4.90
2017,10,27,03,11,4.90
2017,10,27,03,12,4.80
2017,10,27,03,13,4.80
2017,10,27,03,14,4.80
2017,10,27,03,15,4.80
2017,10,27,03,16,4.80
2017,10,27,03,17,4.90
2017,10,27,03,18,4.90
2017,10,27,03,19,4.90
2017,10,27,03,20,5.00
2017,10,27,03,21,5.10
2017,10,27,03,22,5.10
2017,10,27,03,23,5.20
2017,10,27,03,24,5.20
2017,10,27,03,25,5.20
2017,10,27,03,26,5.20
2017,10,27,03,27,5.20
2017,10,27,03,28,5.20
2017,10,27,03,29,5.20
2017,10,27,03,30,5.10
2017,10,27,03,31,5.10
2017,10,27,03,32,5.10
2017,10,27,03,33,5.10
2017,10,27,03,34,5.10
2017,10,27,03,35,5.10
2017,10,27,03,36,5.10
2017,10,27,03,37,5.10
2017,10,27,03,38,5.10
2017,10,27,03,39,5.10
2017,10,27,03,40,5.10
2017,10,27,03,41,5.10
2017,10,27,03,42,5.10
2017,10,27,03,43,5.10
2017,10,27,03,44,5.10
2017,10,27,03,45,5.10
2017,10,27,03,46,5.10
2017,10,27,03,47,5.20
2017,10,27,03,48,5.20
2017,10,27,03,49,5.20
2017,10,27,03,50,5.30
2017,10,27,03,51,5.30
2017,10,27,03,52,5.30
2017,10,27,03,53,5.30
2017,10,27,03,54,5.30
2017,10,27,03,55,5.30
2017,10,27,03,56,5.20
2017,10,27,03,57,5.20
2017,10,27,03,58,5.20
2017,10,27,03,59,5.10
2017,10,27,04,00,5.10
2017,10,27,04,01,5.10
2017,10,27,04,02,5.10
2017,10,27,04,03,5.00
2017,10,27,04,04,4.90
2017,10,27,04,05,4.90
2017,10,27,04,06,4.90
2017,10,27,04,07,4.90
2017,10,27,04,08,4.90
2017,10,27,04,09,4.90
2017,10,27,04,10,4.90
2017,10,27,04,11,4.90
2017,10,27,04,12,4.90
2017,10,27,04,13,5.00
2017,10,27,04,14,5.10
2017,10,27,04,15,5.10
2017,10,27,04,16,5.10
2017,10,27,04,17,5.10
2017,10,27,04,18,5.10
2017,10,27,04,19,5.10
2017,10,27,04,20,5.10
2017,10,27,04,21,5.10
2017,10,27,04,22,5.10
2017,10,27,04,23,5.00
2017,10,27,04,24,4.90
2017,10,27,04,25,4.90
2017,10,27,04,26,4.90
2017,10,27,04,27,4.80
2017,10,27,04,28,4.80
2017,10,27,04,29,4.80
2017,10,27,04,30,4.70
2017,10,27,04,31,4.70
2017,10,27,04,32,4.70
2017,10,27,04,33,4.60
2017,10,27,04,34,4.60
2017,10,27,04,35,4.60
2017,10,27,04,36,4.60
2017,10,27,04,37,4.60
2017,10,27,04,38,4.60
2017,10,27,04,39,4.60
2017,10,27,04,40,4.60
2017,10,27,04,41,4.60
2017,10,27,04,42,4.60
2017,10,27,04,43,4.60
2017,10,27,04,44,4.60
2017,10,27,04,45,4.60
2017,10,27,04,46,4.60
2017,10,27,04,47,4.60
2017,10,27,04,48,4.60
2017,10,27,04,49,4.60
2017,10,27,04,50,4.60
2017,10,27,04,51,4.60
2017,10,27,04,52,4.60
2017,10,27,04,53,4.70
2017,10,27,04,54,4.80
2017,10,27,04,55,4.90
2017,10,27,04,56,4.90
2017,10,27,04,57,5.10
2017,10,27,04,58,5.10
2017,10,27,04,59,5.30
2017,10,27,05,00,5.40
2017,10,27,05,01,5.50
2017,10,27,05,02,5.60
2017,10,27,05,03,5.80
2017,10,27,05,04,5.90
2017,10,27,05,05,6.10
2017,10,27,05,06,6.20
2017,10,27,05,07,6.30
2017,10,27,05,08,6.40
2017,10,27,05,09,6.50
2017,10,27,05,10,6.60
2017,10,27,05,11,6.70
2017,10,27,05,12,6.80
2017,10,27,05,13,6.90
2017,10,27,05,14,7.00
2017,10,27,05,15,7.20
2017,10,27,05,16,7.30
2017,10,27,05,17,7.40
2017,10,27,05,18,7.50
2017,10,27,05,19,7.60
2017,10,27,05,20,7.70
2017,10,27,05,21,7.70
2017,10,27,05,22,7.80
2017,10,27,05,23,7.80
2017,10,27,05,24,7.80
2017,10,27,05,25,7.80
2017,10,27,05,26,7.90
2017,10,27,05,27,7.90
2017,10,27,05,28,7.90
2017,10,27,05,29,8.00
2017,10,27,05,30,8.00
2017,10,27,05,31,8.10
2017,10,27,05,32,8.10
2017,10,27,05,33,8.10
2017,10,27,05,34,8.10
2017,10,27,05,35,8.20
2017,10,27,05,36,8.20
2017,10,27,05,37,8.20
2017,10,27,05,38,8.20
2017,10,27,05,39,8.30
2017,10,27,05,40,8.40
2017,10,27,05,41,8.40
2017,10,27,05,42,8.50
2017,10,27,05,43,8.60
2017,10,27,05,44,8.70
2017,10,27,05,45,8.70
2017,10,27,05,46,8.70
2017,10,27,05,47,8.80
2017,10,27,05,48,8.90
2017,10,27,05,49,9.00
2017,10,27,05,50,9.00
2017,10,27,05,51,9.10
2017,10,27,05,52,9.20
2017,10,27,05,53,9.20
2017,10,27,05,54,9.20
2017,10,27,05,55,9.30
2017,10,27,05,56,9.40
2017,10,27,05,57,9.50
2017,10,27,05,58,9.50
2017,10,27,05,59,9.60
2017,10,27,06,00,9.70
2017,10,27,06,01,9.70
2017,10,27,06,02,9.80
2017,10,27,06,03,9.80
2017,10,27,06,04,9.90
2017,10,27,06,05,9.90
2017,10,27,06,06,10.00
2017,10,27,06,07,10.10
2017,10,27,06,08,10.10
2017,10,27,06,09,10.10
2017,10,27,06,10,10.10
2017,10,27,06,11,10.10
2017,10,27,06,12,10.10
2017,10,27,06,13,10.20
2017,10,27,06,14,10.30
2017,10,27,06,15,10.30
2017,10,27,06,16,10.40
2017,10,27,06,17,10.40
2017,10,27,06,18,10.50
2017,10,27,06,19,10.60
2017,10,27,06,20,10.60
2017,10,27,06,21,10.60
2017,10,27,06,22,10.70
2017,10,27,06,23,10.70
2017,10,27,06,24,10.70
2017,10,27,06,25,10.80
2017,10,27,06,26,10.80
2017,10,27,06,27,10.80
2017,10,27,06,28,10.80
2017,10,27,06,29,10.80
2017,10,27,06,30,10.80
2017,10,27,06,31,10.80
2017,10,27,06,32,10.80
2017,10,27,06,33,10.90
2017,10,27,06,34,10.80
2017,10,27,06,35,10.80
2017,10,27,06,36,10.80
2017,10,27,06,37,10.70
2017,10,27,06,38,10.70
2017,10,27,06,39,10.70
2017,10,27,06,40,10.70
2017,10,27,06,41,10.60
2017,10,27,06,42,10.60
2017,10,27,06,43,10.60
2017,10,27,06,44,10.60
2017,10,27,06,45,10.50
2017,10,27,06,46,10.40
2017,10,27,06,47,10.40
2017,10,27,06,48,10.40
2017,10,27,06,49,10.30
2017,10,27,06,50,10.20
2017,10,27,06,51,10.20
2017,10,27,06,52,10.20
2017,10,27,06,53,10.20
2017,10,27,06,54,10.20
2017,10,27,06,55,10.20
2017,10,27,06,56,10.20
2017,10,27,06,57,10.20
2017,10,27,06,58,10.10
2017,10,27,06,59,10.10
2017,10,27,07,00,10.10
2017,10,27,07,01,10.10
2017,10,27,07,02,10.10
2017,10,27,07,03,10.00
2017,10,27,07,04,9.90
2017,10,27,07,05,9.90
2017,10,27,07,06,9.90
2017,10,27,07,07,9.90
2017,10,27,07,08,9.90
2017,10,27,07,09,9.90
2017,10,27,07,10,9.90
2017,10,27,07,11,9.90
2017,10,27,07,12,9.90
2017,10,27,07,13,9.90
2017,10,27,07,14,9.90
2017,10,27,07,15,10.00
2017,10,27,07,16,10.10
2017,10,27,07,17,10.10
2017,10,27,07,18,10.10
2017,10,27,07,19,10.10
2017,10,27,07,20,10.10
2017,10,27,07,21,10.10
2017,10,27,07,22,10.10
2017,10,27,07,23,10.10
2017,10,27,07,24,10.10
2017,10,27,07,25,10.10
2017,10,27,07,26,10.10
2017,10,27,07,27,10.10
2017,10,27,07,28,10.10
2017,10,27,07,29,10.10
2017,10,27,07,30,10.10
2017,10,27,07,31,10.10
2017,10,27,07,32,10.10
2017,10,27,07,33,10.10
2017,10,27,07,34,10.20
2017,10,27,07,35,10.20
2017,10,27,07,36,10.20
2017,10,27,07,37,10.20
2017,10,27,07,38,10.30
2017,10,27,07,39,10.30
2017,10,27,07,40,10.40
2017,10,27,07,41,10.40
2017,10,27,07,42,10.40
2017,10,27,07,43,10.40
2017,10,27,07,44,10.40
2017,10,27,07,45,10.40
2017,10,27,07,46,10.40
2017,10,27,07,47,10.40
2017,10,27,07,48,10.40
2017,10,27,07,49,10.40
2017,10,27,07,50,10.40
2017,10,27,07,51,10.40
2017,10,27,07,52,10.50
2017,10,27,07,53,10.60
2017,10,27,07,54,10.60
2017,10,27,07,55,10.60
2017,10,27,07,56,10.60
2017,10,27,07,57,10.60
2017,10,27,07,58,10.60
2017,10,27,07,59,10.60
2017,10,27,08,00,10.60
2017,10,27,08,01,10.70
2017,10,27,08,02,10.70
2017,10,27,08,03,10.70
2017,10,27,08,04,10.80
2017,10,27,08,05,10.80
2017,10,27,08,06,10.90
2017,10,27,08,07,10.90
2017,10,27,08,08,10.90
2017,10,27,08,09,10.90
2017,10,27,08,10,10.90
2017,10,27,08,11,10.90
2017,10,27,08,12,10.90
2017,10,27,08,13,10.90
2017,10,27,08,14,10.90
2017,10,27,08,15,10.90
2017,10,27,08,16,10.90
2017,10,27,08,17,10.90
2017,10,27,08,18,11.00
2017,10,27,08,19,11.10
2017,10,27,08,20,11.10
2017,10,27,08,21,11.10
2017,10,27,08,22,11.10
2017,10,27,08,23,11.10
2017,10,27,08,24,11.10
2017,10,27,08,25,11.10
2017,10,27,08,26,11.10
2017,10,27,08,27,11.10
2017,10,27,08,28,11.10
2017,10,27,08,29,11.10
2017,10,27,08,30,11.10
2017,10,27,08,31,11.10
2017,10,27,08,32,11.20
2017,10,27,08,33,11.20
2017,10,27,08,34,11.20
2017,10,27,08,35,11.20
2017,10,27,08,36,11.20
2017,10,27,08,37,11.30
2017,10,27,08,38,11.30
2017,10,27,08,39,11.30
2017,10,27,08,40,11.30
2017,10,27,08,41,11.30
2017,10,27,08,42,11.40
2017,10,27,08,43,11.40
2017,10,27,08,44,11.40
2017,10,27,08,45,11.40
2017,10,27,08,46,11.40
2017,10,27,08,47,11.40
2017,10,27,08,48,11.40
2017,10,27,08,49,11.40
2017,10,27,08,50,11.50
2017,10,27,08,51,11.60
2017,10,27,08,52,11.60
2017,10,27,08,53,11.60
2017,10,27,08,54,11.60
2017,10,27,08,55,11.60
2017,10,27,08,56,11.60
2017,10,27,08,57,11.60
2017,10,27,08,58,11.70
2017,10,27,08,59,11.70
2017,10,27,09,00,11.70
2017,10,27,09,01,11.80
2017,10,27,09,02,11.80
2017,10,27,09,03,11.80
2017,10,27,09,04,11.80
2017,10,27,09,05,11.80
2017,10,27,09,06,11.90
2017,10,27,09,07,11.90
2017,10,27,09,08,11.90
2017,10,27,09,09,11.90
2017,10,27,09,10,11.90
2017,10,27,09,11,12.00
2017,10,27,09,12,12.00
2017,10,27,09,13,12.00
2017,10,27,09,14,12.00
2017,10,27,09,15,12.10
2017,10,27,09,16,12.10
2017,10,27,09,17,12.10
2017,10,27,09,18,12.20
2017,10,27,09,19,12.20
2017,10,27,09,20,12.30
2017,10,27,09,21,12.30
2017,10,27,09,22,12.30
2017,10,27,09,23,12.30
2017,10,27,09,24,12.40
2017,10,27,09,25,12.40
2017,10,27,09,26,12.40
2017,10,27,09,27,12.50
2017,10,27,09,28,12.50
2017,10,27,09,29,12.50
2017,10,27,09,30,12.60
2017,10,27,09,31,12.60
2017,10,27,09,32,12.60
2017,10,27,09,33,12.60
2017,10,27,09,34,12.70
2017,10,27,09,35,12.70
2017,10,27,09,36,12.70
2017,10,27,09,37,12.80
2017,10,27,09,38,12.80
2017,10,27,09,39,12.80
2017,10,27,09,40,12.90
2017,10,27,09,41,12.90
2017,10,27,09,42,13.00
2017,10,27,09,43,13.00
2017,10,27,09,44,13.00
2017,10,27,09,45,13.10
2017,10,27,09,46,13.20
2017,10,27,09,47,13.20
2017,10,27,09,48,13.30
2017,10,27,09,49,13.30
2017,10,27,09,50,13.30
2017,10,27,09,51,13.30
2017,10,27,09,52,13.40
2017,10,27,09,53,13.40
2017,10,27,09,54,13.40
2017,10,27,09,55,13.40
2017,10,27,09,56,13.40
2017,10,27,09,57,13.40
2017,10,27,09,58,13.50
2017,10,27,09,59,13.50
2017,10,27,10,00,13.50
2017,10,27,10,01,13.60
2017,10,27,10,02,13.60
2017,10,27,10,03,13.60
2017,10,27,10,04,13.70
2017,10,27,10,05,13.70
2017,10,27,10,06,13.80
2017,10,27,10,07,13.80
2017,10,27,10,08,13.90
2017,10,27,10,09,13.90
2017,10,27,10,10,13.90
2017,10,27,10,11,13.90
2017,10,27,10,12,13.90
2017,10,27,10,13,13.90
2017,10,27,10,14,13.90
2017,10,27,10,15,14.00
2017,10,27,10,16,14.00
2017,10,27,10,17,14.00
2017,10,27,10,18,14.10
2017,10,27,10,19,14.10
2017,10,27,10,20,14.10
2017,10,27,10,21,14.10
2017,10,27,10,22,14.10
2017,10,27,10,23,14.10
2017,10,27,10,24,14.10
2017,10,27,10,25,14.10
2017,10,27,10,26,14.10
2017,10,27,10,27,14.10
2017,10,27,10,28,14.10
2017,10,27,10,29,14.10
2017,10,27,10,30,14.10
2017,10,27,10,31,14.10
2017,10,27,10,32,14.10
2017,10,27,10,33,14.20
2017,10,27,10,34,14.20
2017,10,27,10,35,14.20
2017,10,27,10,36,14.20
2017,10,27,10,37,14.20
2017,10,27,10,38,14.20
2017,10,27,10,39,14.20
2017,10,27,10,40,14.20
2017,10,27,10,41,14.20
2017,10,27,10,42,14.20
2017,10,27,10,43,14.20
2017,10,27,10,44,14.30
2017,10,27,10,45,14.30
2017,10,27,10,46,14.30
2017,10,27,10,47,14.40
2017,10,27,10,48,14.40
2017,10,27,10,49,14.40
2017,10,27,10,50,14.40
2017,10,27,10,51,14.50
2017,10,27,10,52,14.50
2017,10,27,10,53,14.60
2017,10,27,10,54,14.60
2017,10,27,10,55,14.60
2017,10,27,10,56,14.70
2017,10,27,10,57,14.70
2017,10,27,10,58,14.80
2017,10,27,10,59,14.80
2017,10,27,11,00,14.80
2017,10,27,11,01,14.80
2017,10,27,11,02,14.90
2017,10,27,11,03,15.00
2017,10,27,11,04,15.00
2017,10,27,11,05,15.00
2017,10,27,11,06,15.00
2017,10,27,11,07,15.10
2017,10,27,11,08,15.00
2017,10,27,11,09,15.10
2017,10,27,11,10,15.10
2017,10,27,11,11,15.10
2017,10,27,11,12,15.10
2017,10,27,11,13,15.10
2017,10,27,11,14,15.10
2017,10,27,11,15,15.10
2017,10,27,11,16,15.10
2017,10,27,11,17,15.10
2017,10,27,11,18,15.10
2017,10,27,11,19,15.10
2017,10,27,11,20,15.10
2017,10,27,11,21,15.10
2017,10,27,11,22,15.10
2017,10,27,11,23,15.10
2017,10,27,11,24,15.10
2017,10,27,11,25,15.10
2017,10,27,11,26,15.20
2017,10,27,11,27,15.20
2017,10,27,11,28,15.20
2017,10,27,11,29,15.30
2017,10,27,11,30,15.30
2017,10,27,11,31,15.30
2017,10,27,11,32,15.30
2017,10,27,11,33,15.30
2017,10,27,11,34,15.30
2017,10,27,11,35,15.30
2017,10,27,11,36,15.30
2017,10,27,11,37,15.30
2017,10,27,11,38,15.30
2017,10,27,11,39,15.40
2017,10,27,11,40,15.40
2017,10,27,11,41,15.40
2017,10,27,11,42,15.40
2017,10,27,11,43,15.40
2017,10,27,11,44,15.40
2017,10,27,11,45,15.40
2017,10,27,11,46,15.40
2017,10,27,11,47,15.50
2017,10,27,11,48,15.50
2017,10,27,11,49,15.50
2017,10,27,11,50,15.60
2017,10,27,11,51,15.60
2017,10,27,11,52,15.60
2017,10,27,11,53,15.60
2017,10,27,11,54,15.70
2017,10,27,11,55,15.70
2017,10,27,11,56,15.70
2017,10,27,11,57,15.80
2017,10,27,11,58,15.80
2017,10,27,11,59,15.80
2017,10,27,12,00,15.80
2017,10,27,12,01,15.80
2017,10,27,12,02,15.80
2017,10,27,12,03,15.80
2017,10,27,12,04,15.80
2017,10,27,12,05,15.90
2017,10,27,12,06,15.90
2017,10,27,12,07,15.90
2017,10,27,12,08,15.90
2017,10,27,12,09,15.90
2017,10,27,12,10,15.90
2017,10,27,12,11,15.90
2017,10,27,12,12,15.90
2017,10,27,12,13,16.00
2017,10,27,12,14,16.10
2017,10,27,12,15,16.10
2017,10,27,12,16,16.10
2017,10,27,12,17,16.10
2017,10,27,12,18,16.20
2017,10,27,12,19,16.20
2017,10,27,12,20,16.30
2017,10,27,12,21,16.30
2017,10,27,12,22,16.40
2017,10,27,12,23,16.40
2017,10,27,12,24,16.40
2017,10,27,12,25,16.50
2017,10,27,12,26,16.60
2017,10,27,12,27,16.60
2017,10,27,12,28,16.60
2017,10,27,12,29,16.70
2017,10,27,12,30,16.70
2017,10,27,12,31,16.70
2017,10,27,12,32,16.70
2017,10,27,12,33,16.70
2017,10,27,12,34,16.70
2017,10,27,12,35,16.70
2017,10,27,12,36,16.70
2017,10,27,12,37,16.70
2017,10,27,12,38,16.80
2017,10,27,12,39,16.80
2017,10,27,12,40,16.90
2017,10,27,12,41,16.90
2017,10,27,12,42,17.00
2017,10,27,12,43,17.00
2017,10,27,12,44,17.00
2017,10,27,12,45,17.00
2017,10,27,12,46,17.00
2017,10,27,12,47,17.00
2017,10,27,12,48,17.10
2017,10,27,12,49,17.10
2017,10,27,12,50,17.10
2017,10,27,12,51,17.10
2017,10,27,12,52,17.10
2017,10,27,12,53,17.10
2017,10,27,12,54,17.20
2017,10,27,12,55,17.20
2017,10,27,12,56,17.30
2017,10,27,12,57,17.30
2017,10,27,12,58,17.30
2017,10,27,12,59,17.30
2017,10,27,13,00,17.30
2017,10,27,13,01,17.30
2017,10,27,13,02,17.30
2017,10,27,13,03,17.30
2017,10,27,13,04,17.30
2017,10,27,13,05,17.40
2017,10,27,13,06,17.40
2017,10,27,13,07,17.40
2017,10,27,13,08,17.40
2017,10,27,13,09,17.40
2017,10,27,13,10,17.40
2017,10,27,13,11,17.40
2017,10,27,13,12,17.40
2017,10,27,13,13,17.40
2017,10,27,13,14,17.50
2017,10,27,13,15,17.50
2017,10,27,13,16,17.50
2017,10,27,13,17,17.50
2017,10,27,13,18,17.50
2017,10,27,13,19,17.50
2017,10,27,13,20,17.50
2017,10,27,13,21,17.60
2017,10,27,13,22,17.60
2017,10,27,13,23,17.70
2017,10,27,13,24,17.70
2017,10,27,13,25,17.70
2017,10,27,13,26,17.70
2017,10,27,13,27,17.70
2017,10,27,13,28,17.70
2017,10,27,13,29,17.70
2017,10,27,13,30,17.70
2017,10,27,13,31,17.70
2017,10,27,13,32,17.70
2017,10,27,13,33,17.70
2017,10,27,13,34,17.70
2017,10,27,13,35,17.70
2017,10,27,13,36,17.70
2017,10,27,13,37,17.70
2017,10,27,13,38,17.70
2017,10,27,13,39,17.70
2017,10,27,13,40,17.70
2017,10,27,13,41,17.70
2017,10,27,13,42,17.70
2017,10,27,13,43,17.70
2017,10,27,13,44,17.80
2017,10,27,13,45,17.80
2017,10,27,13,46,17.90
2017,10,27,13,47,17.90
2017,10,27,13,48,17.90
2017,10,27,13,49,17.90
2017,10,27,13,50,17.90
2017,10,27,13,51,18.00
2017,10,27,13,52,18.10
2017,10,27,13,53,18.10
2017,10,27,13,54,18.20
2017,10,27,13,55,18.20
2017,10,27,13,56,18.20
2017,10,27,13,57,18.20
2017,10,27,13,58,18.20
2017,10,27,13,59,18.20
2017,10,27,14,00,18.20
2017,10,27,14,01,18.20
2017,10,27,14,02,18.20
2017,10,27,14,03,18.20
2017,10,27,14,04,18.20
2017,10,27,14,05,18.10
2017,10,27,14,06,18.10
2017,10,27,14,07,17.90
2017,10,27,14,08,17.90
2017,10,27,14,09,17.90
2017,10,27,14,10,17.90
2017,10,27,14,11,17.90
2017,10,27,14,12,17.90
2017,10,27,14,13,17.90
2017,10,27,14,14,17.90
2017,10,27,14,15,17.90
2017,10,27,14,16,18.00
2017,10,27,14,17,18.10
2017,10,27,14,18,18.00
2017,10,27,14,19,18.00
2017,10,27,14,20,18.10
2017,10,27,14,21,18.10
2017,10,27,14,22,18.10
2017,10,27,14,23,18.10
2017,10,27,14,24,18.10
2017,10,27,14,25,18.10
2017,10,27,14,26,18.10
2017,10,27,14,27,18.00
2017,10,27,14,28,17.90
2017,10,27,14,29,17.90
2017,10,27,14,30,17.80
2017,10,27,14,31,17.80
2017,10,27,14,32,17.80
2017,10,27,14,33,17.70
2017,10,27,14,34,17.70
2017,10,27,14,35,17.70
2017,10,27,14,36,17.70
2017,10,27,14,37,17.70
2017,10,27,14,38,17.70
2017,10,27,14,39,17.70
2017,10,27,14,40,17.60
2017,10,27,14,41,17.60
2017,10,27,14,42,17.60
2017,10,27,14,43,17.60
2017,10,27,14,44,17.60
2017,10,27,14,45,17.60
2017,10,27,14,46,17.60
2017,10,27,14,47,17.70
2017,10,27,14,48,17.80
2017,10,27,14,49,17.90
2017,10,27,14,50,18.00
2017,10,27,14,51,18.20
2017,10,27,14,52,18.30
2017,10,27,14,53,18.30
2017,10,27,14,54,18.40
2017,10,27,14,55,18.40
2017,10,27,14,56,18.40
2017,10,27,14,57,18.40
2017,10,27,14,58,18.50
2017,10,27,14,59,18.50
2017,10,27,15,00,18.50
2017,10,27,15,01,18.60
2017,10,27,15,02,18.70
2017,10,27,15,03,18.60
2017,10,27,15,04,18.60
2017,10,27,15,05,18.50
2017,10,27,15,06,18.50
2017,10,27,15,07,18.40
2017,10,27,15,08,18.40
2017,10,27,15,09,18.40
2017,10,27,15,10,18.40
2017,10,27,15,11,18.40
2017,10,27,15,12,18.40
2017,10,27,15,13,18.40
2017,10,27,15,14,18.40
2017,10,27,15,15,18.30
2017,10,27,15,16,18.30
2017,10,27,15,17,18.30
2017,10,27,15,18,18.30
2017,10,27,15,19,18.30
2017,10,27,15,20,18.30
2017,10,27,15,21,18.30
2017,10,27,15,22,18.30
2017,10,27,15,23,18.30
2017,10,27,15,24,18.30
2017,10,27,15,25,18.20
2017,10,27,15,26,18.20
2017,10,27,15,27,18.10
2017,10,27,15,28,17.90
2017,10,27,15,29,17.90
2017,10,27,15,30,17.80
2017,10,27,15,31,17.70
2017,10,27,15,32,17.70
2017,10,27,15,33,17.60
2017,10,27,15,34,17.60
2017,10,27,15,35,17.50
2017,10,27,15,36,17.50
2017,10,27,15,37,17.50
2017,10,27,15,38,17.50
2017,10,27,15,39,17.50
2017,10,27,15,40,17.40
2017,10,27,15,41,17.40
2017,10,27,15,42,17.40
2017,10,27,15,43,17.40
2017,10,27,15,44,17.40
2017,10,27,15,45,17.40
2017,10,27,15,46,17.30
2017,10,27,15,47,17.30
2017,10,27,15,48,17.30
2017,10,27,15,49,17.30
2017,10,27,15,50,17.30
2017,10,27,15,51,17.20
2017,10,27,15,52,17.20
2017,10,27,15,53,17.20
2017,10,27,15,54,17.20
2017,10,27,15,55,17.10
2017,10,27,15,56,17.10
2017,10,27,15,57,17.00
2017,10,27,15,58,17.00
2017,10,27,15,59,17.00
2017,10,27,16,00,16.90
2017,10,27,16,01,16.90
2017,10,27,16,02,16.90
2017,10,27,16,03,16.80
2017,10,27,16,04,16.80
2017,10,27,16,05,16.80
2017,10,27,16,06,16.80
2017,10,27,16,07,16.70
2017,10,27,16,08,16.70
2017,10,27,16,09,16.70
2017,10,27,16,10,16.70
2017,10,27,16,11,16.70
2017,10,27,16,12,16.70
2017,10,27,16,13,16.70
2017,10,27,16,14,16.70
2017,10,27,16,15,16.70
2017,10,27,16,16,16.60
2017,10,27,16,17,16.60
2017,10,27,16,18,16.60
2017,10,27,16,19,16.50
2017,10,27,16,20,16.40
2017,10,27,16,21,16.40
2017,10,27,16,22,16.40
2017,10,27,16,23,16.40
2017,10,27,16,24,16.40
2017,10,27,16,25,16.30
2017,10,27,16,26,16.30
2017,10,27,16,27,16.30
2017,10,27,16,28,16.30
2017,10,27,16,29,16.30
2017,10,27,16,30,16.30
2017,10,27,16,31,16.30
2017,10,27,16,32,16.30
2017,10,27,16,33,16.20
2017,10,27,16,34,16.20
2017,10,27,16,35,16.20
2017,10,27,16,36,16.20
2017,10,27,16,37,16.20
2017,10,27,16,38,16.20
2017,10,27,16,39,16.20
2017,10,27,16,40,16.20
2017,10,27,16,41,16.20
2017,10,27,16,42,16.10
2017,10,27,16,43,16.10
2017,10,27,16,44,16.10
2017,10,27,16,45,16.10
2017,10,27,16,46,16.10
2017,10,27,16,47,16.10
2017,10,27,16,48,16.10
2017,10,27,16,49,16.10
2017,10,27,16,50,16.10
2017,10,27,16,51,16.10
2017,10,27,16,52,16.10
2017,10,27,16,53,16.10
2017,10,27,16,54,16.10
2017,10,27,16,55,16.10
2017,10,27,16,56,16.10
2017,10,27,16,57,16.00
2017,10,27,16,58,15.90
2017,10,27,16,59,15.90
2017,10,27,17,00,15.90
2017,10,27,17,01,15.90
2017,10,27,17,02,15.90
2017,10,27,17,03,15.80
2017,10,27,17,04,15.80
2017,10,27,17,05,15.80
2017,10,27,17,06,15.80
2017,10,27,17,07,15.80
2017,10,27,17,08,15.80
2017,10,27,17,09,15.80
2017,10,27,17,10,15.70
2017,10,27,17,11,15.70
2017,10,27,17,12,15.70
2017,10,27,17,13,15.70
2017,10,27,17,14,15.70
2017,10,27,17,15,15.60
2017,10,27,17,16,15.60
2017,10,27,17,17,15.60
2017,10,27,17,18,15.60
2017,10,27,17,19,15.50
2017,10,27,17,20,15.50
2017,10,27,17,21,15.50
2017,10,27,17,22,15.50
2017,10,27,17,23,15.40
2017,10,27,17,24,15.40
2017,10,27,17,25,15.40
2017,10,27,17,26,15.40
2017,10,27,17,27,15.30
2017,10,27,17,28,15.30
2017,10,27,17,29,15.30
2017,10,27,17,30,15.30
2017,10,27,17,31,15.30
2017,10,27,17,32,15.20
2017,10,27,17,33,15.20
2017,10,27,17,34,15.20
2017,10,27,17,35,15.10